{"data":{"norad_id":58493,"intl_designator":"2023-186W","name":"STARLINK-30985","alt_names":[],"object_type":"PAYLOAD","status":"ACTIVE","operator":null,"country":"US","launch_date":"2023-12-03","launch_site_code":"AFETR","launch_vehicle":null,"mission":null,"orbit_class":"UNKNOWN","rcs_meters":null,"size_class":null,"mass_kg":null,"dimensions":null,"purposes":["comms"],"wikipedia_slug":null,"has_3d_model":false,"image_url":null,"decayed_at":null,"tle_current":{"epoch":"2026-09-20T09:01:56.730720Z","epoch_age_seconds":157723,"freshness":"FRESH","line1":"1 58493U 23186W   26263.37635105 -.00001290  00000+0 -37356-4 0  9999","line2":"2 58493  43.0058  43.9315 0002258 262.2608  97.7987 15.27557242155669","mean_motion":15.27557242,"eccentricity":0.0002258,"inclination_deg":43.0058,"raan_deg":43.9315,"arg_perigee_deg":262.2608,"mean_anomaly_deg":97.7987,"bstar":-3.7356e-5,"rev_number":15566,"period_min":94.26815312758,"perigee_km":481.56797131688,"apogee_km":484.66651373281,"semimajor_km":6861.2542425248,"source":"CELESTRAK","updated_at":"2026-09-21T09:00:33.905664Z"}}}